Stations météo

réclame
Mon MeteoGroup
Straubing, Allemagne (10788): Température de l'air & dewpoint: 13.07.2018 19:00:00 - 19.07.2018 19:00:00 (CEST)Straubing, Allemagne (10788): Température de l'air 5cm & Température de l'air -5cm: 13.07.2018 19:00:00 - 19.07.2018 19:00:00 (CEST)Straubing, Allemagne (10788): Température de l'air -20cm & Température de l'air -100cm: 13.07.2018 19:00:00 - 19.07.2018 19:00:00 (CEST)Straubing, Allemagne (10788): Vitesse du vent & gusts: 13.07.2018 19:00:00 - 19.07.2018 19:00:00 (CEST)Straubing, Allemagne (10788): Direction du vent: 13.07.2018 19:00:00 - 19.07.2018 19:00:00 (CEST)Straubing, Allemagne (10788): reduced air pressure: 13.07.2018 19:00:00 - 19.07.2018 19:00:00 (CEST)Straubing, Allemagne (10788): visibility: 13.07.2018 19:00:00 - 19.07.2018 19:00:00 (CEST)Straubing, Allemagne (10788): Ensoleillement: 13.07.2018 19:00:00 - 19.07.2018 19:00:00 (CEST)Straubing, Allemagne (10788): Quantités de précipitations: 13.07.2018 19:00:00 - 19.07.2018 19:00:00 (CEST)
Date & Time tt [°C] td [°C] tt 5cm [°C] tt -5cm [°C] tt -20cm [°C] tt -100cm [°C] ff [km/h] ff [knt] fx [km/h] fx [knt] dd ppp [hPa] vv [km] sd [min] rr [mm]
19.07.2018 19:00:00 28,3 7,8 29,0 31,3 26,0 18,5 9 5 22 12 W 1013,1 57 60 0,0
19.07.2018 18:00:00 28,1 6,6 31,6 33,2 25,7 18,5 6 4 20 11 NNW 1013,5 54 60 0,0
19.07.2018 17:00:00 28,5 7,1 33,5 34,5 25,3 18,5 11 6 27 15 N 1013,9 36 60 0,0
19.07.2018 16:00:00 28,0 6,9 32,6 35,2 24,8 18,4 10 5 27 15 W 1014,3 46 60 0,0
19.07.2018 15:00:00 27,2 7,6 33,4 35,1 24,2 18,4 10 5 26 14 WNW 1014,8 27 60 0,0
19.07.2018 14:00:00 26,8 8,1 33,4 34,6 23,5 18,4 12 6 39 21 NW 1015,1 24 60 0,0
19.07.2018 13:00:00 25,7 7,7 33,0 33,1 22,9 18,4 13 7 27 15 WNW 1015,7 23 60 0,0
19.07.2018 12:00:00 24,6 8,5 31,7 31,2 22,4 18,4 13 7 44 24 NNW 1015,9 29 60 0,0
19.07.2018 11:00:00 23,7 9,3 29,2 29,3 21,9 18,4 10 6 19 11 NW 1016,2 23 60 0,0
19.07.2018 10:00:00 22,5 10,2 27,5 26,5 21,7 18,4 10 5 18 10 NNW 1016,5 18 60 0,0
19.07.2018 09:00:00 20,9 10,7 25,7 23,4 21,6 18,4 8 4 15 8 NW 1016,7 25 60 0,0
19.07.2018 08:00:00 18,5 10,8 21,8 20,4 21,7 18,4 5 3 10 6 W 1016,9 29 60 0,0
19.07.2018 07:00:00 15,6 10,0 16,7 17,9 22,0 18,4 5 3 7 4 WSW 1017,3 19 38 0,0
19.07.2018 06:00:00 12,0 8,6 9,8 17,4 22,4 18,4 5 3 15 8 W 1017,4 32 0 0,0
19.07.2018 05:00:00 15,3 9,6 13,1 18,0 22,7 18,4 10 5 14 8 W 1016,7 41 0 0,0
19.07.2018 04:00:00 13,7 9,2 10,8 18,7 23,0 18,4 6 3 14 8 WSW 1016,7 39 0 0,0
19.07.2018 03:00:00 17,5 9,7 15,0 19,4 23,4 18,4 10 5 14 8 W 1016,1 48 0 0,0
19.07.2018 02:00:00 18,2 9,8 15,5 20,0 23,8 18,4 9 5 15 8 WNW 1016,0 55 0 0,0
19.07.2018 01:00:00 19,1 10,2 16,6 20,6 24,1 18,4 8 4 12 7 W 1015,7 48 0 0,0
19.07.2018 00:00:00 19,7 10,1 16,6 21,5 24,5 18,4 8 4 11 6 W 1015,4 61 0 0,0
18.07.2018 23:00:00 20,5 10,8 16,7 22,5 24,8 18,4 6 3 9 5 W 1015,1 36 0 0,0
18.07.2018 22:00:00 22,1 10,6 18,5 23,9 25,1 18,4 5 3 14 8 W 1014,7 64 0 0,0
18.07.2018 21:00:00 24,8 9,9 22,3 25,6 25,3 18,4 9 5 21 11 NNW 1013,8 70 29 0,0
18.07.2018 20:00:00 27,1 9,3 26,2 27,8 25,3 18,3 13 7 27 15 NW 1013,2 33 60 0,0
18.07.2018 19:00:00 28,2 9,6 29,2 29,9 25,2 18,3 13 7 35 19 WNW 1012,9 21 59 0,0
18.07.2018 18:00:00 28,4 9,6 30,5 31,2 25,0 18,3 16 9 31 17 NW 1013,1 16 53 0,0
18.07.2018 17:00:00 28,4 8,2 31,0 32,6 24,7 18,3 15 8 35 19 WNW 1013,2 15 52 0,0
18.07.2018 16:00:00 28,3 8,7 32,5 33,0 24,2 18,3 19 11 35 19 NW 1013,4 26 50 0,0
18.07.2018 15:00:00 28,1 9,1 33,3 32,6 23,8 18,3 18 10 34 18 W 1013,8 23 52 0,0
18.07.2018 14:00:00 26,2 10,0 27,2 30,7 23,3 18,3 21 11 36 19 NNW 1014,4 25 25 0,0
18.07.2018 13:00:00 26,0 10,1 28,6 31,8 22,7 18,3 18 10 35 19 NNW 1014,7 26 46 0,0
18.07.2018 12:00:00 26,7 11,2 32,8 31,2 22,1 18,3 16 9 30 16 NW 1015,0 12 60 0,0
18.07.2018 11:00:00 25,1 12,1 30,4 29,0 21,7 18,3 11 6 23 12 WNW 1015,3 16 60 0,0
18.07.2018 10:00:00 22,6 12,5 27,3 26,2 21,4 18,3 12 6 22 12 WNW 1015,6 10 60 0,0
18.07.2018 09:00:00 20,9 12,2 24,5 23,1 21,3 18,3 13 7 22 12 W 1015,7 20 47 0,0
18.07.2018 08:00:00 19,5 12,5 20,8 20,7 21,4 18,3 13 7 20 11 W 1015,7 27 26 0,0
18.07.2018 07:00:00 18,2 12,3 18,0 19,5 21,6 18,3 13 7 21 11 W 1015,6 42 0 0,0
18.07.2018 06:00:00 17,3 12,5 16,4 19,0 21,8 18,3 7 4 11 6 WSW 1015,2 38 0 0,0
18.07.2018 05:00:00 17,4 12,2 15,4 18,9 22,1 18,3 8 4 18 10 W 1015,0 41 0 0,0
18.07.2018 04:00:00 18,4 12,3 16,6 19,4 22,4 18,3 12 6 22 12 W 1014,7 52 0 0,0
18.07.2018 03:00:00 18,8 12,2 17,1 19,9 22,7 18,3 10 5 22 12 W 1014,7 63 0 0,0
18.07.2018 02:00:00 19,5 12,1 17,7 20,4 22,9 18,3 12 7 28 15 W 1014,5 70 0 0,0
18.07.2018 01:00:00 20,1 12,1 19,0 20,8 23,2 18,3 17 9 29 16 W 1014,1 61 0 0,0
18.07.2018 00:00:00 20,0 12,0 18,7 21,3 23,5 18,3 20 11 32 18 WSW 1014,0 53 0 0,0
17.07.2018 23:00:00 21,1 12,8 19,5 22,1 23,8 18,3 18 10 30 16 WSW 1013,4 63 0 0,0
17.07.2018 22:00:00 20,3 13,5 19,1 23,1 24,1 18,3 14 7 23 13 SW 1013,3 55 0 0,0
17.07.2018 21:00:00 22,4 12,4 21,8 24,7 24,2 18,3 19 10 29 16 SW 1012,7 53 14 0,0
17.07.2018 20:00:00 24,4 11,2 23,5 26,1 24,3 18,3 5 3 31 17 WNW 1012,1 55 13 0,0
17.07.2018 19:00:00 25,4 10,2 26,4 28,2 24,2 18,3 22 12 39 21 N 1011,8 22 54 0,0
17.07.2018 18:00:00 28,3 10,3 31,1 29,4 24,0 18,3 21 12 39 21 W 1011,0 34 36 0,0
17.07.2018 17:00:00 27,5 8,1 28,9 30,0 23,6 18,3 13 7 28 15 NNW 1011,2 66 29 0,0
17.07.2018 16:00:00 28,6 8,3 33,6 31,3 23,2 18,3 14 8 29 16 NW 1011,1 21 47 0,0
17.07.2018 15:00:00 27,3 8,8 31,6 31,5 22,8 18,3 18 10 36 19 WNW 1011,7 23 49 0,0
17.07.2018 14:00:00 25,2 11,5 27,2 28,1 22,4 18,3 15 8 34 18 W 1012,7 50 6 0,0
17.07.2018 13:00:00 25,1 10,1 27,2 29,5 21,8 18,3 13 7 29 16 NW 1013,1 43 36 0,0
17.07.2018 12:00:00 25,3 10,0 31,5 30,0 21,2 18,3 12 6 26 14 WNW 1013,2 14 60 0,0
17.07.2018 11:00:00 24,2 12,0 30,2 27,7 20,8 18,3 11 6 19 10 WNW 1013,3 28 59 0,0
17.07.2018 10:00:00 21,8 13,7 26,2 25,2 20,5 18,3 12 7 20 11 W 1013,5 18 54 0,0
17.07.2018 09:00:00 19,6 13,0 23,6 22,4 20,4 18,2 16 8 21 12 W 1013,8 27 53 0,0
17.07.2018 08:00:00 17,4 13,2 18,7 19,1 20,5 18,2 11 6 18 10 W 1013,9 23 15 0,0
17.07.2018 07:00:00 14,7 12,6 14,2 17,4 20,7 18,2 10 5 16 9 WSW 1014,1 13 2 0,0
17.07.2018 06:00:00 14,2 13,0 12,8 17,3 21,0 18,2 6 3 8 5 W 1013,9 9 0 0,0
17.07.2018 05:00:00 14,9 13,4 14,1 17,7 21,3 18,2 5 3 11 6 WNW 1013,5 10 0 0,0
17.07.2018 04:00:00 12,4 11,1 11,2 17,7 21,6 18,2 5 3 9 5 WSW 1013,6 10 0 0,0
17.07.2018 03:00:00 14,3 12,7 12,7 18,2 21,9 18,2 5 3 7 4 W 1013,3 17 0 0,0
17.07.2018 02:00:00 14,4 11,8 12,7 18,6 22,2 18,2 6 3 9 5 W 1013,4 20 0 0,0
17.07.2018 01:00:00 14,3 11,8 11,3 19,3 22,6 18,2 4 2 13 7 W 1013,4 26 0 0,0
17.07.2018 00:00:00 16,4 12,5 14,6 20,0 22,9 18,2 8 4 12 6 W 1012,6 31 0 0,0
16.07.2018 23:00:00 16,9 12,5 14,6 20,9 23,2 18,2 7 4 9 5 WSW 1012,5 35 0 0,0
16.07.2018 22:00:00 19,6 12,3 16,9 22,2 23,5 18,2 6 3 12 6 N 1012,0 50 0 0,0
16.07.2018 21:00:00 20,8 12,9 18,7 23,4 23,6 18,2 6 3 16 9 NNW 1011,1 47 28 0,0
16.07.2018 20:00:00 22,0 12,8 22,1 25,2 23,7 18,2 8 4 19 10 N 1010,9 55 60 0,0
16.07.2018 19:00:00 22,6 13,0 24,5 26,6 23,6 18,2 17 9 30 16 NNE 1010,9 15 60 0,0
16.07.2018 18:00:00 24,0 12,5 27,5 28,3 23,3 18,2 16 9 34 18 N 1011,3 19 60 0,0
16.07.2018 17:00:00 23,5 12,7 28,1 29,9 22,9 18,2 21 12 33 18 NW 1011,4 15 46 0,0
16.07.2018 16:00:00 24,5 11,7 27,5 31,2 22,4 18,2 12 7 25 14 NW 1011,0 44 47 0,0
16.07.2018 15:00:00 23,9 12,9 28,8 30,9 21,8 18,2 9 5 20 11 SSW 1011,9 32 55 0,0
16.07.2018 14:00:00 23,5 13,5 28,7 29,6 21,2 18,2 9 5 18 10 SSW 1012,5 26 22 0,0
16.07.2018 13:00:00 22,6 12,9 28,2 27,8 20,8 18,2 6 3 15 8 W 1013,2 20 19 0,0
16.07.2018 12:00:00 21,6 14,1 26,5 25,9 20,4 18,2 6 3 10 5 SSW 1013,8 15 29 0,0
16.07.2018 11:00:00 19,1 14,8 22,2 22,4 20,2 18,2 6 4 10 5 NE 1014,6 12 0 0,0
16.07.2018 10:00:00 18,2 14,6 20,1 21,6 20,1 18,2 5 3 9 5 ENE 1014,7 16 0 0,0
16.07.2018 09:00:00 18,0 14,0 20,6 22,2 20,0 18,2 4 2 10 5 WSW 1015,0 15 48 0,0
16.07.2018 08:00:00 16,2 13,0 19,7 19,0 20,0 18,2 5 3 11 6 N 1015,4 13 60 0,0
16.07.2018 07:00:00 14,3 12,7 14,7 16,4 20,2 18,2 2 1 9 5 NNW 1015,1 9 12 0,0
16.07.2018 06:00:00 12,2 11,1 11,7 16,2 20,5 18,2 5 3 9 5 W 1015,4 10 0 0,0
16.07.2018 05:00:00 12,0 11,3 10,7 16,2 20,8 18,2 6 3 9 5 SW 1015,5 9 0 0,0
16.07.2018 04:00:00 11,2 10,4 10,0 16,5 21,2 18,2 7 4 9 5 S 1015,9 5 0 0,0
16.07.2018 03:00:00 12,0 11,6 11,2 16,9 21,5 18,2 6 3 11 6 S 1016,2 9 0 0,0
16.07.2018 02:00:00 11,5 11,0 10,0 17,4 21,9 18,2 5 3 13 7 SSE 1016,5 5 0 0,0
16.07.2018 01:00:00 13,3 12,8 12,3 18,1 22,3 18,2 6 3 9 5 SSW 1016,1 7 0 0,0
16.07.2018 00:00:00 14,5 13,8 13,2 18,9 22,6 18,1 5 3 9 5 SW 1016,0 13 0 0,0
15.07.2018 23:00:00 15,6 14,6 13,9 19,8 23,0 18,1 8 4 14 7 SSW 1016,1 18 0 0,0
15.07.2018 22:00:00 18,1 14,3 15,4 21,0 23,3 18,1 0 0 8 4 N 1015,7 38 0 0,0
15.07.2018 21:00:00 18,5 15,0 17,7 22,2 23,5 18,1 7 4 13 7 NNE 1015,0 34 10 0,0
15.07.2018 20:00:00 20,0 15,1 20,1 23,5 23,7 18,1 8 4 24 13 SSW 1014,2 41 8 0,0
15.07.2018 19:00:00 20,9 14,6 21,9 24,3 24,0 18,1 13 7 25 13 SSW 1014,5 70 27 0,0
15.07.2018 18:00:00 19,1 15,1 18,2 23,8 24,2 18,1 8 4 14 8 SE 1015,1 35 0 0,4
15.07.2018 17:00:00 19,6 14,3 19,3 25,1 24,3 18,1 9 5 16 9 ESE 1015,4 37 0 0,1
15.07.2018 16:00:00 19,7 13,3 17,9 26,9 24,1 18,1 14 8 58 31 NNW 1014,9 41 4 0,5
15.07.2018 15:00:00 27,6 10,3 32,0 34,5 23,5 18,1 8 5 18 10 SSW 1013,0 36 39 0,0
15.07.2018 14:00:00 27,7 10,9 33,3 35,8 22,7 18,1 13 7 22 12 SW 1013,5 25 57 0,0
15.07.2018 13:00:00 26,8 11,0 32,8 33,7 22,0 18,1 6 3 17 9 S 1014,0 38 60 0,0
15.07.2018 12:00:00 25,5 13,3 32,0 31,1 21,3 18,1 8 4 16 8 NE 1015,0 42 60 0,0
15.07.2018 11:00:00 24,6 13,5 29,7 28,4 20,9 18,1 9 5 19 10 E 1015,6 26 60 0,0
15.07.2018 10:00:00 22,4 12,0 26,3 25,4 20,6 18,1 12 7 19 10 ESE 1016,0 25 60 0,0
15.07.2018 09:00:00 21,2 12,5 24,2 22,5 20,5 18,1 7 4 10 6 SE 1016,2 22 60 0,0
15.07.2018 08:00:00 18,2 14,3 20,1 20,0 20,5 18,1 3 1 6 4 SSW 1016,3 18 60 0,0
15.07.2018 07:00:00 14,8 12,9 16,4 17,7 20,7 18,1 4 2 6 4 S 1016,8 11 36 0,0
15.07.2018 06:00:00 12,4 11,1 11,0 16,7 21,0 18,1 5 3 7 4 SSW 1017,2 14 0 0,0
15.07.2018 05:00:00 12,9 11,7 11,2 17,1 21,4 18,1 4 2 10 6 SW 1017,0 16 0 0,0
15.07.2018 04:00:00 12,1 11,0 10,4 17,7 21,7 18,1 6 3 11 6 S 1017,4 12 0 0,0
15.07.2018 03:00:00 14,5 12,4 12,7 18,3 22,0 18,0 4 2 10 5 SE 1017,4 18 0 0,0
15.07.2018 02:00:00 13,8 11,7 11,9 18,6 22,4 18,0 6 4 9 5 NNE 1017,6 18 0 0,0
15.07.2018 01:00:00 15,0 12,5 12,2 19,3 22,8 18,0 3 1 12 6 S 1017,5 22 0 0,0
15.07.2018 00:00:00 15,7 12,8 14,0 20,0 23,1 18,0 6 3 11 6 S 1017,2 25 0 0,0
14.07.2018 23:00:00 15,9 12,8 14,8 21,0 23,4 18,0 10 5 11 6 S 1016,9 30 0 0,0
14.07.2018 22:00:00 20,3 12,6 16,0 22,3 23,7 18,0 3 2 10 5 S 1016,1 56 0 0,0
14.07.2018 21:00:00 21,3 13,1 18,4 23,9 23,9 18,0 6 3 8 4 ESE 1015,8 31 29 0,0
14.07.2018 20:00:00 24,1 12,6 23,6 25,8 23,9 18,0 5 3 10 5 ENE 1015,5 70 60 0,0
14.07.2018 19:00:00 24,8 12,9 26,5 26,8 23,9 18,0 6 4 9 5 NNE 1015,6 63 18 0,0
14.07.2018 18:00:00 24,8 10,0 25,5 27,1 23,8 18,0 6 3 16 9 W 1015,9 70 0 0,0
14.07.2018 17:00:00 25,0 9,3 29,9 28,8 23,7 18,0 8 5 18 10 WNW 1016,2 65 50 0,0
14.07.2018 16:00:00 23,6 14,6 28,0 27,9 23,6 18,0 10 5 29 16 SSW 1016,9 22 20 0,5
14.07.2018 15:00:00 23,0 11,9 22,6 27,3 23,4 18,0 11 6 33 18 W 1017,5 70 0 0,0
14.07.2018 14:00:00 26,7 9,8 30,2 32,8 22,8 18,0 9 5 22 12 WNW 1016,6 64 29 0,0
14.07.2018 13:00:00 27,3 10,5 34,1 33,4 22,1 18,0 8 4 21 11 NNW 1016,8 62 60 0,0
14.07.2018 12:00:00 25,4 10,2 31,6 31,1 21,5 18,0 8 5 16 9 NNW 1017,8 30 55 0,0
14.07.2018 11:00:00 24,4 12,4 30,7 28,2 21,0 18,0 7 4 13 7 NNE 1018,1 53 31 0,0
14.07.2018 10:00:00 22,3 12,0 26,1 26,5 20,7 18,0 4 2 8 4 NE 1018,6 35 59 0,0
14.07.2018 09:00:00 20,7 11,7 22,9 22,9 20,5 18,0 3 2 6 4 NE 1018,8 32 60 0,0
14.07.2018 08:00:00 16,6 12,5 21,0 19,7 20,6 18,0 6 3 10 5 NW 1019,2 22 60 0,0
14.07.2018 07:00:00 14,7 11,9 15,9 17,4 20,9 18,0 3 2 10 5 W 1019,5 22 38 0,0
14.07.2018 06:00:00 11,8 10,6 10,4 16,8 21,3 18,0 0 0 9 5 N 1019,6 14 0 0,0
14.07.2018 05:00:00 11,0 9,8 9,3 17,3 21,6 18,0 3 1 7 4 SSW 1019,5 14 0 0,0
14.07.2018 04:00:00 13,2 11,4 11,0 17,9 22,0 18,0 4 2 9 5 SW 1019,3 25 0 0,0
14.07.2018 03:00:00 12,4 10,7 11,7 18,5 22,4 18,0 6 3 9 5 SSW 1019,6 19 0 0,0
14.07.2018 02:00:00 12,9 10,7 11,9 19,2 22,8 18,0 4 2 11 6 SW 1019,5 27 0 0,0
14.07.2018 01:00:00 14,5 11,9 13,5 20,0 23,1 18,0 9 5 10 6 S 1019,3 23 0 0,0
14.07.2018 00:00:00 17,1 12,2 15,0 21,1 23,5 18,0 6 3 6 4 WSW 1018,8 47 0 0,0
13.07.2018 23:00:00 17,7 12,5 15,4 22,0 23,8 18,0 5 3 11 6 SSW 1018,6 51 0 0,0
13.07.2018 22:00:00 21,7 12,0 19,5 23,4 24,1 18,0 8 4 20 11 NW 1017,9 46 0 0,0
13.07.2018 21:00:00 22,5 12,1 20,9 24,7 24,3 18,0 12 7 19 10 N 1017,3 53 5 0,0
13.07.2018 20:00:00 25,2 10,5 23,6 26,9 24,3 18,0 6 3 16 9 WNW 1016,4 52 32 0,0
13.07.2018 19:00:00 25,9 10,0 25,4 28,8 24,2 18,0 8 4 19 10 WNW 1016,3 70 48 0,0

tt = Température de l'air
td = dewpoint
tt 5cm = Température de l'air 5cm
tt -5cm = Température de l'air -5cm
tt -20cm = Température de l'air -20cm
tt -100cm = Température de l'air -100cm
ff = Vitesse du vent
fx = gusts
dd = Direction du vent
ppp = reduced air pressure
vv = visibility
sd = Ensoleillement
rr = Quantités de précipitations

stations d'obs. à proximité